Showing default

KUIPER-00425, 68934

Orbit data source: Space-Track

KUIPER-00425, 68934 is a payload satellite owned by Kuiper Systems (US) in LEO that was launched on Thu, 30 Apr 2026 UTC via an ARIANE 64 launch vehicle from the French Guiana (FRGUI). Payload-class satellites include a variety of spacecraft equipped with specific instruments for various scientific and technological missions. These include communications satellites like Starlink; space stations such as the ISS; scientific satellites like the Hubble; Earth observation satellites from companies like Planet Labs, Umbra, and HawkEye 360; GPS; miniature CubeSats for education and research; and military/defense satellites.

Loading next visibility...
Identifier
68934, 2026-098R
Orbit
LEO
Country
Flag of USUS
Related business
Manufacturer
Kuiper Systems
Mission
Operational spacecraft
Bus & Motor
KUIPER, Unknown motor
Mass
~490 kg wet, ~490 kg dry
Launch date (UTC)
2026-04-30 (1 month ago)
Launch vehicle
ARIANE 64
Launch site
French Guiana (FRGUI)
Object type
Payload
Rocket body
Debris
Shape & HBR
Unknown
Radar Cross Section
Large (>1 m²)

Expand to show TLE details & history
Last TLE update: 3 days ago

TLE from 3 days ago
0 KUIPER-00425
1 68934U 26098R   26155.08931413  .00026354  00000-0  91047-3 0  9997
2 68934  51.8727 131.6924 0019055 104.6973 255.6125 15.29588369  5320
Epoch: 2026-06-04T02:08Z
TLE epoch observation values (Epoch: 2026-06-04T02:08:36.740Z)
Latitude
0.00004°
Longitude
-152.99924°
Altitude
481.071 km
Speed
7.624 km/s
True Right ascension
08h 46m 46s
True Declination
0° 00' 00"
Sunlit
Object was in daylight at epoch
Visualization orbit readout
Latitude
Unknown
Longitude
Unknown
Altitude
Unknown
Speed
Unknown
Apparent Right ascension
Unknown
Apparent Declination
Unknown
Sunlit
N/A
Visualization observer readout
Local Sidereal Time
03:02:38
Azimuth
Unknown
Elevation
Unknown
Doppler factor
Unknown
Orbital elements
Apogee altitude
490.571 km
Perigee altitude
464.444 km
Semi-major axis
6,855.644 km
Eccentricity
0.00191
Inclination
51.8727°
RAAN
131.6924°
Arg. of periapsis
104.6973°
True anomaly
255.40112°
Mean anomaly
255.6125°
Eccentric anomaly
255.5068°
Mean motion
3.82358 °/min
Orbital period
94.15 mins
BSTAR
0.00091047
Loading maneuver chart data...
Computing Atmospheric mass density...
Loading historical data...
Loading historical data...
Loading historical data...
Loading historical data...
Loading historical data...
Loading historical data...
Loading historical data...

Documentation

Showing up to 5 results
|